Location: Unspecified
(0.0000°N, 0.0000°E)
Time: 17:50:58
(UTC+00:00)

Vanguard 2 Rocket - Pass Details

Date: 18 December 2018
Orbit: 554 x 3326 km, 32.9° (Epoch: 17 June)

Event Time Altitude Azimuth Distance (km) Brightness Sun altitude
Rises 01:24:26 0° 238° (WSW) 6,109 11.1 -58.3°
Enters shadow 01:25:09 - 238° (WSW) 5,898 11.0 -58.2°
Reaches altitude 10° 01:29:10 10° 240° (WSW) 4,657 - -57.5°
Maximum altitude 01:40:52 72° 322° (NW) 1,396 - -55.5°
Drops below altitude 10° 01:47:15 10° 47° (NE) 2,649 - -54.3°
Sets 01:49:17 0° 49° (NE) 3,373 - -54.0°
